timestamp,wind_dir_avg,wind_spd_avg,wind_spd_max_dir,wind_spd_gust,battery_voltage,lat,long
2021-09-11 00:04:01+00:00,141.0,9.81,131.0,12.01,12.65,47.59359,-54.27349
2021-09-11 00:14:01+00:00,142.0,10.59,142.0,11.98,12.65,47.59359,-54.27349
2021-09-11 00:24:01+00:00,141.0,10.39,142.0,11.74,12.65,47.59359,-54.27349
2021-09-11 00:34:01+00:00,140.0,10.78,139.0,12.38,12.65,47.59359,-54.27349
2021-09-11 00:44:01+00:00,141.0,10.24,135.0,12.7,12.65,47.59359,-54.27349
2021-09-11 00:54:01+00:00,140.0,11.86,134.0,14.73,12.65,47.59359,-54.27349
2021-09-11 01:04:01+00:00,146.0,11.8,148.0,13.27,12.65,47.59359,-54.27349
2021-09-11 01:14:01+00:00,139.0,12.21,143.0,15.31,12.65,47.59359,-54.27349
2021-09-11 01:24:01+00:00,138.0,12.4,140.0,15.36,12.65,47.59359,-54.27349
2021-09-11 01:34:01+00:00,127.0,12.0,136.0,15.21,12.65,47.59359,-54.27349
2021-09-11 01:44:01+00:00,121.0,13.91,115.0,18.72,12.65,47.59359,-54.27349
2021-09-11 01:54:01+00:00,113.0,9.75,125.0,14.38,12.65,47.59359,-54.27349
2021-09-11 02:04:01+00:00,115.0,12.05,117.0,17.52,12.65,47.59359,-54.27349
2021-09-11 02:14:00+00:00,122.0,13.1,120.0,16.77,12.65,47.59359,-54.27349
2021-09-11 02:24:00+00:00,116.0,9.95,115.0,16.05,12.65,47.59359,-54.27349
2021-09-11 02:34:00+00:00,120.0,13.75,126.0,17.13,12.65,47.59359,-54.27349
2021-09-11 02:44:00+00:00,121.0,14.81,130.0,16.8,12.65,47.59359,-54.27349
2021-09-11 02:54:00+00:00,120.0,13.24,127.0,17.37,12.65,47.59359,-54.27349
2021-09-11 03:04:00+00:00,124.0,18.23,122.0,23.47,12.65,47.59359,-54.27349
2021-09-11 03:14:00+00:00,125.0,21.18,126.0,26.57,12.65,47.59359,-54.27349
2021-09-11 03:24:00+00:00,136.0,19.97,137.0,24.49,12.65,47.59359,-54.27349
2021-09-11 03:34:00+00:00,139.0,20.67,134.0,26.34,12.65,47.59359,-54.27349
2021-09-11 03:44:00+00:00,143.0,25.72,152.0,32.58,12.65,47.59359,-54.27349
2021-09-11 03:54:00+00:00,141.0,24.79,141.0,30.45,12.65,47.59359,-54.27349
2021-09-11 04:04:00+00:00,139.0,21.27,140.0,25.64,12.65,47.59359,-54.27349
2021-09-11 04:14:00+00:00,161.0,15.8,162.0,19.62,12.65,47.59359,-54.27349
2021-09-11 04:24:00+00:00,202.0,13.02,209.0,15.27,12.65,47.59359,-54.27349
2021-09-11 04:34:00+00:00,249.0,15.25,248.0,17.26,12.65,47.59359,-54.27349
2021-09-11 04:44:00+00:00,253.0,16.85,260.0,19.98,12.65,47.59359,-54.27349
2021-09-11 04:54:00+00:00,258.0,17.68,260.0,22.82,12.65,47.59359,-54.27349
2021-09-11 05:04:00+00:00,257.0,15.04,260.0,18.88,12.65,47.59359,-54.27349
2021-09-11 05:14:01+00:00,236.0,18.59,235.0,22.92,12.57,47.59359,-54.27349
2021-09-11 05:24:01+00:00,250.0,18.37,251.0,22.21,12.57,47.59359,-54.27349
2021-09-11 05:34:01+00:00,252.0,18.71,253.0,20.86,12.57,47.59359,-54.27349
2021-09-11 05:44:01+00:00,254.0,15.24,256.0,17.2,12.57,47.59359,-54.27349
2021-09-11 05:54:01+00:00,252.0,17.12,253.0,20.1,12.57,47.59359,-54.27349
2021-09-11 06:04:01+00:00,255.0,15.94,258.0,20.12,12.57,47.59359,-54.27349
2021-09-11 06:14:00+00:00,255.0,17.0,262.0,21.04,12.57,47.59359,-54.27349
2021-09-11 06:24:00+00:00,255.0,17.68,253.0,21.19,12.57,47.59359,-54.27349
2021-09-11 06:34:00+00:00,255.0,18.88,256.0,23.52,12.57,47.59359,-54.27349
2021-09-11 06:44:00+00:00,257.0,16.15,260.0,21.43,12.57,47.59359,-54.27349
2021-09-11 06:54:00+00:00,259.0,15.69,262.0,21.02,12.57,47.59359,-54.27349
2021-09-11 07:04:00+00:00,257.0,16.74,256.0,19.38,12.57,47.59359,-54.27349
2021-09-11 07:14:01+00:00,261.0,16.21,265.0,20.07,12.57,47.59359,-54.27349
2021-09-11 07:24:01+00:00,269.0,17.77,270.0,22.16,12.57,47.59359,-54.27349
2021-09-11 07:34:01+00:00,267.0,15.91,277.0,17.93,12.57,47.59359,-54.27349
2021-09-11 07:44:01+00:00,264.0,13.22,267.0,14.86,12.57,47.59359,-54.27349
2021-09-11 07:54:01+00:00,264.0,14.44,272.0,16.4,12.57,47.59359,-54.27349
2021-09-11 08:04:01+00:00,243.0,13.29,238.0,15.13,12.57,47.59359,-54.27349
2021-09-11 08:14:01+00:00,241.0,13.62,242.0,16.65,12.49,47.59359,-54.27349
2021-09-11 08:24:01+00:00,244.0,13.95,248.0,15.8,12.49,47.59359,-54.27349
2021-09-11 08:34:01+00:00,235.0,12.32,233.0,14.35,12.49,47.59359,-54.27349
2021-09-11 08:44:01+00:00,229.0,13.92,232.0,16.24,12.49,47.59359,-54.27349
2021-09-11 08:54:01+00:00,231.0,12.74,230.0,14.41,12.49,47.59359,-54.27349
2021-09-11 09:04:01+00:00,232.0,10.27,231.0,12.11,12.49,47.59359,-54.27349
2021-09-11 09:14:01+00:00,232.0,12.85,239.0,14.83,12.41,47.59359,-54.27349
2021-09-11 09:24:01+00:00,234.0,10.98,240.0,12.99,12.41,47.59359,-54.27349
2021-09-11 09:34:01+00:00,240.0,11.59,244.0,13.46,12.41,47.59359,-54.27349
2021-09-11 09:44:01+00:00,246.0,10.57,247.0,12.19,12.41,47.59359,-54.27349
2021-09-11 09:54:01+00:00,248.0,12.47,247.0,14.44,12.41,47.59359,-54.27349
2021-09-11 10:04:01+00:00,247.0,13.77,256.0,15.33,12.41,47.59359,-54.27349
2021-09-11 10:14:01+00:00,245.0,12.74,246.0,15.73,12.49,47.59359,-54.27349
2021-09-11 10:24:01+00:00,254.0,14.7,258.0,16.86,12.49,47.59359,-54.27349
2021-09-11 10:34:01+00:00,252.0,15.23,254.0,16.85,12.49,47.59359,-54.27349
2021-09-11 10:44:01+00:00,257.0,15.5,264.0,19.13,12.49,47.59359,-54.27349
2021-09-11 10:54:01+00:00,249.0,16.45,247.0,18.8,12.49,47.59359,-54.27349
2021-09-11 11:04:01+00:00,253.0,14.07,256.0,15.87,12.49,47.59359,-54.27349
2021-09-11 11:14:01+00:00,256.0,13.74,263.0,15.56,13.53,47.59359,-54.27349
2021-09-11 11:24:01+00:00,259.0,14.21,252.0,16.2,13.53,47.59359,-54.27349
2021-09-11 11:34:01+00:00,263.0,13.1,266.0,16.08,13.53,47.59359,-54.27349
2021-09-11 11:44:01+00:00,262.0,16.05,263.0,19.19,13.53,47.59359,-54.27349
2021-09-11 11:54:01+00:00,261.0,13.43,266.0,16.03,13.53,47.59359,-54.27349
2021-09-11 12:04:01+00:00,248.0,12.74,252.0,15.78,13.53,47.59359,-54.27349
2021-09-11 12:14:01+00:00,255.0,15.37,257.0,16.9,13.53,47.59359,-54.27349
2021-09-11 12:24:01+00:00,255.0,15.28,255.0,17.47,13.53,47.59359,-54.27349
2021-09-11 12:34:01+00:00,262.0,15.34,265.0,18.82,13.53,47.59359,-54.27349
2021-09-11 12:44:01+00:00,262.0,15.15,270.0,17.18,13.53,47.59359,-54.27349
2021-09-11 12:54:01+00:00,255.0,13.75,255.0,16.42,13.53,47.59359,-54.27349
2021-09-11 13:04:01+00:00,256.0,11.73,263.0,14.18,13.53,47.59359,-54.27349
2021-09-11 13:14:01+00:00,256.0,14.31,254.0,16.46,14.24,47.59359,-54.27349
2021-09-11 13:24:01+00:00,264.0,13.69,252.0,16.08,14.24,47.59359,-54.27349
2021-09-11 13:34:01+00:00,256.0,15.88,253.0,17.36,14.24,47.59359,-54.27349
2021-09-11 13:44:01+00:00,264.0,17.02,261.0,21.61,14.24,47.59359,-54.27349
2021-09-11 13:54:01+00:00,261.0,14.49,264.0,16.61,14.24,47.59359,-54.27349
2021-09-11 14:04:01+00:00,266.0,14.9,266.0,16.1,14.24,47.59359,-54.27349
2021-09-11 14:14:01+00:00,264.0,15.64,268.0,20.0,13.92,47.59359,-54.27349
2021-09-11 14:24:01+00:00,263.0,13.36,270.0,16.28,13.92,47.59359,-54.27349
2021-09-11 14:34:01+00:00,263.0,13.12,265.0,15.32,13.92,47.59359,-54.27349
2021-09-11 14:44:01+00:00,265.0,13.35,272.0,16.89,13.92,47.59359,-54.27349
2021-09-11 14:54:01+00:00,255.0,14.22,252.0,16.21,13.92,47.59359,-54.27349
2021-09-11 15:04:01+00:00,253.0,13.96,257.0,18.47,13.92,47.59359,-54.27349
2021-09-11 15:14:01+00:00,260.0,12.55,263.0,15.58,13.6,47.59359,-54.27349
2021-09-11 15:24:01+00:00,251.0,15.72,252.0,17.95,13.6,47.59359,-54.27349
2021-09-11 15:34:01+00:00,257.0,14.07,256.0,17.07,13.6,47.59359,-54.27349
2021-09-11 15:44:01+00:00,262.0,14.06,263.0,17.15,13.6,47.59359,-54.27349
2021-09-11 15:54:01+00:00,255.0,14.34,256.0,17.17,13.6,47.59359,-54.27349
2021-09-11 16:04:01+00:00,262.0,15.75,263.0,17.83,13.6,47.59359,-54.27349
2021-09-11 16:14:01+00:00,265.0,11.09,271.0,14.53,14.08,47.59359,-54.27349
2021-09-11 16:24:01+00:00,260.0,12.41,257.0,14.87,14.08,47.59359,-54.27349
2021-09-11 16:34:01+00:00,259.0,14.17,258.0,18.32,14.08,47.59359,-54.27349
2021-09-11 16:44:01+00:00,257.0,15.03,256.0,18.5,14.08,47.59359,-54.27349
2021-09-11 16:54:01+00:00,260.0,15.73,262.0,19.63,14.08,47.59359,-54.27349
2021-09-11 17:04:01+00:00,263.0,11.49,270.0,12.97,14.08,47.59359,-54.27349
2021-09-11 17:14:01+00:00,250.0,13.93,251.0,16.13,13.92,47.59359,-54.27349
2021-09-11 17:24:01+00:00,254.0,16.26,253.0,18.78,13.92,47.59359,-54.27349
2021-09-11 17:34:01+00:00,260.0,17.18,264.0,20.79,13.92,47.59359,-54.27349
2021-09-11 17:44:01+00:00,258.0,13.86,257.0,15.96,13.92,47.59359,-54.27349
2021-09-11 17:54:01+00:00,257.0,11.84,254.0,13.89,13.92,47.59359,-54.27349
2021-09-11 18:04:01+00:00,265.0,15.69,262.0,18.68,13.92,47.59359,-54.27349
2021-09-11 18:14:00+00:00,259.0,12.72,263.0,15.45,14.08,47.59359,-54.27349
2021-09-11 18:24:00+00:00,261.0,15.04,252.0,17.21,14.08,47.59359,-54.27349
2021-09-11 18:34:00+00:00,261.0,16.62,263.0,19.32,14.08,47.59359,-54.27349
2021-09-11 18:44:00+00:00,254.0,15.25,253.0,17.27,14.08,47.59359,-54.27349
2021-09-11 18:54:00+00:00,261.0,17.27,266.0,22.39,14.08,47.59359,-54.27349
2021-09-11 19:04:00+00:00,258.0,17.04,255.0,21.42,14.08,47.59359,-54.27349
2021-09-11 19:14:01+00:00,259.0,15.3,262.0,17.91,13.92,47.59359,-54.27349
2021-09-11 19:24:01+00:00,261.0,15.81,258.0,17.3,13.92,47.59359,-54.27349
2021-09-11 19:34:01+00:00,264.0,16.44,263.0,19.45,13.92,47.59359,-54.27349
2021-09-11 19:44:01+00:00,262.0,14.21,254.0,16.48,13.92,47.59359,-54.27349
2021-09-11 19:54:01+00:00,264.0,13.76,255.0,16.87,13.92,47.59359,-54.27349
2021-09-11 20:04:01+00:00,255.0,15.54,250.0,19.93,13.92,47.59359,-54.27349
2021-09-11 20:14:01+00:00,265.0,15.67,268.0,18.33,13.84,47.59359,-54.27349
2021-09-11 20:24:01+00:00,261.0,14.48,264.0,17.05,13.84,47.59359,-54.27349
2021-09-11 20:34:01+00:00,259.0,16.36,256.0,19.04,13.84,47.59359,-54.27349
2021-09-11 20:44:01+00:00,257.0,17.38,258.0,19.67,13.84,47.59359,-54.27349
2021-09-11 20:54:01+00:00,258.0,15.77,257.0,19.37,13.84,47.59359,-54.27349
2021-09-11 21:04:01+00:00,266.0,13.81,267.0,16.43,13.84,47.59359,-54.27349
2021-09-11 21:14:01+00:00,264.0,12.31,262.0,14.29,13.44,47.59359,-54.27349
2021-09-11 21:24:01+00:00,264.0,14.88,261.0,16.7,13.44,47.59359,-54.27349
2021-09-11 21:34:01+00:00,255.0,13.22,256.0,17.37,13.44,47.59359,-54.27349
2021-09-11 21:44:01+00:00,255.0,11.81,258.0,14.25,13.44,47.59359,-54.27349
2021-09-11 21:54:01+00:00,256.0,13.42,253.0,16.15,13.44,47.59359,-54.27349
2021-09-11 22:04:01+00:00,263.0,11.96,261.0,13.34,13.44,47.59359,-54.27349
2021-09-11 22:14:01+00:00,262.0,12.64,261.0,14.6,12.97,47.59359,-54.27349
2021-09-11 22:24:01+00:00,256.0,11.3,260.0,14.19,12.97,47.59359,-54.27349
2021-09-11 22:34:01+00:00,262.0,11.68,264.0,14.1,12.97,47.59359,-54.27349
2021-09-11 22:44:01+00:00,267.0,10.76,266.0,13.3,12.97,47.59359,-54.27349
2021-09-11 22:54:01+00:00,267.0,13.38,268.0,15.19,12.97,47.59359,-54.27349
2021-09-11 23:04:01+00:00,261.0,12.81,258.0,15.08,12.97,47.59359,-54.27349
2021-09-11 23:14:01+00:00,265.0,11.78,259.0,14.38,12.65,47.59359,-54.27349
2021-09-11 23:24:01+00:00,257.0,12.1,260.0,16.04,12.65,47.59359,-54.27349
2021-09-11 23:34:01+00:00,259.0,10.32,261.0,11.89,12.65,47.59359,-54.27349
2021-09-11 23:44:01+00:00,261.0,10.94,259.0,12.66,12.65,47.59359,-54.27349
2021-09-11 23:54:01+00:00,257.0,12.21,253.0,15.69,12.65,47.59359,-54.27349
